sat.trackr.live / text

‹ back to catalog

ET-001B

NORAD 69941 · 2026-156CA

PAYLOAD ACTIVE UNKNOWN

§ Identity

Operator
Country
US
Launch date
2026-07-07
Launch site
AFWTR
Launch vehicle
Mass (kg)
RCS (m²)

External: N2YO · Heavens-Above · Gunter

§ Orbital elements

Epoch: 2026-09-19T10:21:37.396512Z

Period
96.47 min
Inclination
97.7422°
Eccentricity
0.0006298
Mean motion
14.92667129 rev/d
Perigee alt
585.2 km
Apogee alt
594.0 km
Semi-major
6,967.8 km
B*
3.4168e-4
RAAN
161.6883°
Arg perigee
270.4715°
Mean anomaly
89.5782°
Rev number
1,105

§ Raw data

ET-001B1 69941U 26156CA  26262.43168283  .00003467  00000+0  34168-3 0  99962 69941  97.7422 161.6883 0006298 270.4715  89.5782 14.92667129 11059

JSON: /api/v1/satellites/69941 · /tle

For live sub-satellite position, see the globe view (requires WebGL).

§ Visibility from observer

Set your observer location to see the next 7 days of passes ≥ 10°. The values pass through the URL so the page stays shareable.

No JS? Fill the form by hand. The geolocation button needs JavaScript.